La Push, WA

2:08 PM PDT on August 28, 2016 (GMT -0700)
Quillayute

Weather History for KUIL - April, 2013

Change the Weather History Date:

Thursday, April 18, 2013

  Actual Average Record
Temperature  
Mean Temperature 48 °F 47 °F  
Max Temperature 52 °F 55 °F 80 °F (2016)
Min Temperature 44 °F 39 °F 29 °F (1981)
Degree Days  
Heating Degree Days 17 18  
Month to date heating degree days 297 342  
Since 1 July heating degree days 4573 4835  
Cooling Degree Days 0 0  
Month to date cooling degree days 0 0  
Year to date cooling degree days 0 0  
Moisture  
Dew Point 45 °F    
Average Humidity 86    
Maximum Humidity 89    
Minimum Humidity 83    
Precipitation  
Precipitation 1.60 in 0.26 in 1.60 in (2013)
Month to date precipitation 8.56 5.05  
Year to date precipitation 46.66 40.84  
Sea Level Pressure  
Sea Level Pressure 30.34 in    
Wind  
Wind Speed 6 mph (SSE)    
Max Wind Speed 13 mph    
Max Gust Speed 22 mph    
Visibility 3 miles    
Events Fog , Rain    
T = Trace of Precipitation, MM = Missing Value Source: NWS Daily Summary

Daily Weather History Graph

Daily Weather History Graph

Search for Another Location

Airport or City:

Trip Planner

Search our weather history database for the weather conditions in past years. The results will help you decide how hot, cold, wet, or windy it might be!

Date:

Astronomy

Apr. 18, 2013 Rise Set
Actual Time 6:22 AM PDT 8:13 PM PDT
Civil Twilight 5:49 AM PDT 8:46 PM PDT
Nautical Twilight 5:09 AM PDT 9:27 PM PDT
Astronomical Twilight 4:24 AM PDT 10:11 PM PDT
Moon 12:35 PM PDT (4/18) 2:36 AM PDT (4/18)
Length of Visible Light 14h 56m
Length of Day
13h 50m
First Quarter, 53% of the Moon is Illuminated
Apr 18
First Quarter
Apr 25
Full
May 2
Last Quarter
May 9
New
May 17
First Quarter

Hourly Weather History & Observations

Time (PDT) Temp. Windchill Dew Point Humidity Pressure Visibility Wind Dir Wind Speed Gust Speed Precip Events Conditions
12:10 AM 44.6 °F - 41.0 °F 87% 30.45 in 5.0 mi Calm Calm - 0.00 in Rain Light Rain
12:27 AM 44.6 °F - 41.0 °F 87% 30.45 in 5.0 mi Calm Calm - 0.01 in Rain Light Rain
12:41 AM 44.6 °F - 39.2 °F 81% 30.46 in 5.0 mi Calm Calm - 0.01 in Rain Light Rain
12:53 AM 44.1 °F - 41.0 °F 89% 30.45 in 5.0 mi Calm Calm - 0.01 in Rain Light Rain
1:53 AM 44.1 °F - 41.0 °F 89% 30.45 in 6.0 mi Calm Calm - 0.01 in Rain Light Rain
2:53 AM 44.1 °F - 39.9 °F 85% 30.44 in 8.0 mi Calm Calm - 0.01 in Rain Light Rain
3:53 AM 44.1 °F 42.5 °F 39.9 °F 85% 30.43 in 8.0 mi ESE 3.5 mph - 0.00 in   Overcast
4:09 AM 44.6 °F 43.1 °F 39.2 °F 81% 30.42 in 6.0 mi ESE 3.5 mph - N/A   Overcast
4:53 AM 44.1 °F 42.5 °F 39.9 °F 85% 30.43 in 2.5 mi East 3.5 mph - 0.00 in Rain Light Rain
5:19 AM 44.6 °F 43.1 °F 39.2 °F 81% 30.42 in 4.0 mi ESE 3.5 mph - 0.01 in   Overcast
5:53 AM 44.1 °F 41.5 °F 39.9 °F 85% 30.43 in 3.0 mi ESE 4.6 mph - 0.01 in   Overcast
6:00 AM 44.6 °F 43.1 °F 39.2 °F 81% 30.42 in 2.5 mi ESE 3.5 mph - N/A   Overcast
6:11 AM 44.6 °F 43.1 °F 39.2 °F 81% 30.42 in 4.0 mi ESE 3.5 mph - N/A   Overcast
6:53 AM 44.1 °F 41.5 °F 39.9 °F 85% 30.42 in 5.0 mi ESE 4.6 mph - N/A   Overcast
7:08 AM 44.6 °F 43.1 °F 39.2 °F 81% 30.41 in 2.5 mi ESE 3.5 mph - N/A   Overcast
7:53 AM 45.0 °F 43.5 °F 41.0 °F 86% 30.42 in 2.5 mi ESE 3.5 mph - N/A   Overcast
8:04 AM 44.6 °F 41.4 °F 41.0 °F 87% 30.41 in 4.0 mi SE 5.8 mph - N/A   Overcast
8:36 AM 46.4 °F 43.5 °F 42.8 °F 87% 30.41 in 9.0 mi ESE 5.8 mph - N/A   Overcast
8:53 AM 46.9 °F - 42.1 °F 83% 30.42 in 9.0 mi SE 6.9 mph - N/A   Overcast
9:11 AM 46.4 °F 43.5 °F 42.8 °F 87% 30.41 in 9.0 mi SE 5.8 mph - N/A   Overcast
9:44 AM 48.2 °F - 42.8 °F 82% 30.41 in 9.0 mi SE 8.1 mph - N/A   Overcast
9:53 AM 48.9 °F - 43.0 °F 80% 30.41 in 9.0 mi SSE 6.9 mph - N/A   Overcast
10:10 AM 50.0 °F - 44.6 °F 82% 30.40 in 9.0 mi SE 8.1 mph - N/A   Overcast
10:53 AM 50.0 °F - 44.1 °F 80% 30.41 in 10.0 mi SE 6.9 mph 16.1 mph N/A   Overcast
11:53 AM 51.1 °F - 45.0 °F 80% 30.40 in 6.0 mi Variable 4.6 mph - 0.00 in Rain Light Rain
12:53 PM 51.1 °F - 46.0 °F 83% 30.38 in 2.5 mi SSE 10.4 mph - 0.02 in Rain Light Rain
1:04 PM 51.8 °F - 46.4 °F 82% 30.37 in 3.0 mi SSE 6.9 mph - 0.01 in Rain Light Rain
1:32 PM 51.8 °F - 46.4 °F 82% 30.37 in 2.5 mi South 8.1 mph - 0.02 in Rain Light Rain
1:53 PM 51.1 °F - 46.9 °F 86% 30.37 in 2.5 mi Variable 5.8 mph 17.3 mph 0.05 in Rain Light Rain
2:13 PM 51.8 °F - 46.4 °F 82% 30.35 in 1.8 mi South 9.2 mph 19.6 mph 0.02 in Rain Light Rain
2:36 PM 51.8 °F - 46.4 °F 82% 30.35 in 2.0 mi SSE 9.2 mph 19.6 mph 0.04 in Rain Light Rain
2:53 PM 51.1 °F - 46.9 °F 86% 30.37 in 1.8 mi South 9.2 mph 16.1 mph 0.05 in Rain Light Rain
3:49 PM 51.8 °F - 46.4 °F 82% 30.34 in 2.0 mi SSE 8.1 mph 21.9 mph 0.07 in Rain Light Rain
3:53 PM 51.1 °F - 46.9 °F 86% 30.35 in 2.0 mi Variable 4.6 mph 21.9 mph 0.07 in Rain Light Rain
4:07 PM 51.8 °F - 48.2 °F 88% 30.33 in 1.8 mi South 9.2 mph - 0.02 in Rain Light Rain
4:22 PM 51.8 °F - 46.4 °F 82% 30.33 in 1.2 mi South 6.9 mph 18.4 mph 0.04 in Rain Light Rain
4:30 PM 51.8 °F - 48.2 °F 88% 30.33 in 1.8 mi South 10.4 mph 17.3 mph 0.05 in Rain Light Rain
4:42 PM 51.8 °F - 48.2 °F 88% 30.32 in 1.0 mi SSE 6.9 mph 17.3 mph 0.07 in Rain Rain
4:53 PM 51.1 °F - 48.0 °F 89% 30.32 in 1.5 mi South 10.4 mph 17.3 mph 0.09 in Rain Light Rain
5:10 PM 51.8 °F - 48.2 °F 88% 30.31 in 1.2 mi Variable 5.8 mph 16.1 mph 0.02 in Rain Light Rain
5:32 PM 51.8 °F - 46.4 °F 82% 30.31 in 0.8 mi South 8.1 mph - 0.05 in Rain Rain
5:53 PM 51.1 °F - 46.9 °F 86% 30.31 in 1.2 mi South 10.4 mph - 0.09 in Rain Light Rain
6:16 PM 51.8 °F - 46.4 °F 82% 30.30 in 0.8 mi Variable 5.8 mph - 0.01 in Rain Light Rain
6:35 PM 51.8 °F - 46.4 °F 82% 30.30 in 1.0 mi South 8.1 mph - 0.03 in Rain Light Rain
6:45 PM 51.8 °F - 46.4 °F 82% 30.30 in 0.8 mi South 6.9 mph - 0.05 in Rain Rain
6:53 PM 51.1 °F - 46.9 °F 86% 30.30 in 0.5 mi SSW 6.9 mph - 0.08 in Fog , Rain Rain
7:27 PM 51.8 °F - 46.4 °F 82% 30.27 in 1.2 mi Variable 4.6 mph - 0.12 in Rain Rain
7:36 PM 51.8 °F - 46.4 °F 82% 30.27 in 2.0 mi Variable 3.5 mph - 0.14 in Rain Rain
7:45 PM 51.8 °F - 46.4 °F 82% 30.26 in 1.5 mi Variable 3.5 mph - 0.17 in Rain Rain
7:53 PM 51.1 °F - 46.9 °F 86% 30.27 in 1.8 mi South 5.8 mph - 0.19 in Rain Rain
8:08 PM 51.8 °F - 46.4 °F 82% 30.25 in 2.5 mi South 4.6 mph - 0.03 in Rain Rain
8:15 PM 51.8 °F - 46.4 °F 82% 30.25 in 3.0 mi South 6.9 mph - N/A Rain Rain
8:26 PM 51.8 °F - 46.4 °F 82% 30.25 in 2.5 mi Variable 5.8 mph - 0.07 in Rain Light Rain
8:53 PM 50.0 °F - 46.9 °F 89% 30.24 in 2.5 mi SSE 8.1 mph - 0.12 in Rain Rain
9:10 PM 50.0 °F - 46.4 °F 87% 30.24 in 3.0 mi Variable 6.9 mph - 0.03 in Rain Rain
9:25 PM 50.0 °F - 46.4 °F 87% 30.24 in 1.8 mi South 5.8 mph - N/A Rain Rain
9:35 PM 50.0 °F - 46.4 °F 87% 30.24 in 1.2 mi South 6.9 mph - 0.10 in Rain Rain
9:42 PM 50.0 °F - 46.4 °F 87% 30.24 in 1.8 mi South 8.1 mph - 0.12 in Rain Rain
9:51 PM 50.0 °F - 46.4 °F 87% 30.24 in 2.0 mi South 6.9 mph - 0.14 in Rain Rain
9:53 PM 50.0 °F - 46.9 °F 89% 30.24 in 2.0 mi Variable 6.9 mph - 0.15 in Rain Rain
10:07 PM 50.0 °F - 46.4 °F 87% 30.23 in 1.8 mi South 5.8 mph - 0.04 in Rain Rain
10:53 PM 51.1 °F - 46.9 °F 86% 30.21 in 1.5 mi Variable 3.5 mph - 0.18 in Rain Rain
11:01 PM 51.8 °F - 46.4 °F 82% 30.21 in 1.5 mi Variable 4.6 mph - 0.03 in Rain Heavy Rain
11:53 PM 51.1 °F - 46.9 °F 86% 30.19 in 1.5 mi South 8.1 mph - 0.25 in Rain Heavy Rain